EW6762 Weather Reports


Display with metric or nautical units.
time (UTC)temp
F
wind
direction
speed
MPH
gust
MPH
rain 1hr
in
rain 24hr
in
rain mn
in
humidity
%
barometer
mb
20260906070309 73 182 1.0 3.0 0.00 0.67 0.00 95 1011.4
20260906065331 73 129 1.0 5.0 0.00 0.67 0.00 95 1011.4
20260906064335 73 209 0.0 2.0 0.00 0.67 0.00 95 1011.3
20260906063333 73 123 0.0 1.0 0.00 0.67 0.00 94 1011.3
20260906062333 73 123 1.0 3.0 0.00 0.67 0.00 94 1011.3
20260906061327 74 321 0.0 1.0 0.00 0.67 0.00 94 1011.4
20260906060322 74 321 0.0 3.0 0.00 0.67 0.00 94 1011.4
20260906055324 74 290 1.0 3.0 0.00 0.67 0.00 94 1011.5
20260906054321 74 332 2.0 3.0 0.00 0.67 0.00 94 1011.6
20260906053315 74 280 1.0 2.0 0.00 0.67 0.00 94 1011.6
20260906052315 74 281 0.0 3.0 0.00 0.67 0.00 94 1011.8
20260906051327 74 261 2.0 4.0 0.00 0.67 0.00 94 1012.0
20260906050327 74 271 1.0 3.0 0.00 0.67 0.00 94 1012.0
20260906045322 74 286 1.0 2.0 0.00 0.67 0.00 94 1012.0
20260906044318 74 314 1.0 2.0 0.00 0.67 0.00 94 1012.3
20260906043318 75 317 1.0 2.0 0.00 0.67 0.00 95 1012.4
20260906042315 75 360 0.0 1.0 0.00 0.67 0.00 95 1012.3
20260906041319 75 69 0.0 3.0 0.00 0.67 0.00 95 1012.4
20260906040309 75 74 0.0 2.0 0.00 0.67 0.00 94 1012.4
20260906035333 75 325 1.0 2.0 0.00 0.67 0.17 94 1012.4
20260906034327 75 308 0.0 2.0 0.00 0.67 0.17 94 1012.4
20260906033328 75 324 1.0 2.0 0.00 0.67 0.17 94 1012.6
20260906032326 75 331 1.0 2.0 0.00 0.67 0.17 94 1012.5
20260906031322 75 223 1.0 3.0 0.00 0.67 0.17 94 1012.6
20260906030326 75 181 2.0 3.0 0.00 0.67 0.17 94 1012.5
20260906025319 75 244 2.0 3.0 0.00 0.67 0.17 94 1012.5
20260906024318 75 258 2.0 3.0 0.00 0.67 0.17 94 1012.6
20260906023311 75 244 2.0 3.0 0.00 0.67 0.17 94 1012.6
20260906022332 75 280 2.0 3.0 0.00 0.67 0.17 94 1012.7
20260906021327 75 305 0.0 1.0 0.00 0.67 0.17 94 1012.6
20260906020314 75 340 1.0 2.0 0.00 0.67 0.17 94 1012.3
20260906015310 75 269 1.0 3.0 0.00 0.67 0.17 94 1012.3
20260906014332 76 242 1.0 3.0 0.00 0.67 0.17 94 1012.4
20260906013309 76 265 2.0 3.0 0.00 0.67 0.17 94 1012.3
20260906012326 76 208 3.0 5.0 0.00 0.67 0.17 94 1012.3
20260906011329 76 273 2.0 5.0 0.00 0.67 0.17 94 1012.3
20260906010325 76 123 3.0 5.0 0.00 0.67 0.17 94 1012.6
20260906005350 76 193 2.0 4.0 0.00 0.67 0.17 94 1012.5
20260906004326 76 144 2.0 4.0 0.00 0.67 0.17 94 1012.5
20260906003350 76 71 1.0 5.0 0.00 0.67 0.17 94 1012.4
20260906002327 76 124 2.0 5.0 0.00 0.67 0.17 94 1012.1
20260906001332 76 299 1.0 4.0 0.00 0.67 0.17 93 1011.3
20260906000323 76 258 3.0 6.0 0.00 0.67 0.17 93 1011.1
20260905235318 76 277 2.0 7.0 0.00 0.67 0.17 93 1010.9
20260905234318 76 271 4.0 7.0 0.00 0.67 0.17 94 1010.8
20260905233315 76 244 3.0 4.0 0.00 0.67 0.17 93 1010.8
20260905232312 76 269 2.0 4.0 0.00 0.67 0.17 94 1010.9
20260905231317 76 93 0.0 2.0 0.00 0.67 0.17 94 1010.9
20260905230312 76 261 1.0 3.0 0.04 0.67 0.17 93 1010.8
20260905225334 76 282 2.0 5.0 0.08 0.67 0.17 93 1010.4
20260905224328 77 282 3.0 6.0 0.12 0.67 0.17 94 1010.3
20260905223331 77 284 3.0 5.0 0.12 0.67 0.17 94 1010.0
20260905222327 77 271 2.0 3.0 0.12 0.67 0.17 94 1009.4
20260905221323 76 284 1.0 3.0 0.12 0.67 0.17 93 1009.5
20260905220327 76 269 1.0 6.0 0.24 0.63 0.16 93 1010.2
20260905215320 76 236 5.0 13.0 0.43 0.59 0.15 93 1010.9
20260905214343 76 184 2.0 11.0 0.47 0.55 0.14 92 1010.0
20260905213315 76 53 5.0 12.0 0.55 0.55 0.14 91 1010.5
20260905212315 76 95 3.0 9.0 0.55 0.55 0.14 90 1011.5
20260905211355 77 269 2.0 12.0 0.55 0.55 0.14 89 1012.1
20260905210323 78 285 9.0 24.0 0.35 0.35 0.09 89 1012.6
20260905205313 79 243 14.0 32.0 0.16 0.16 0.04 85 1011.0
20260905204312 86 273 18.0 34.0 0.04 0.04 0.01 70 1010.8
20260905203325 98 236 6.0 12.0 0.00 0.00 0.00 56 1010.5
20260905202327 99 256 2.0 3.0 0.00 0.00 0.00 54 1009.6
20260905201323 100 259 2.0 4.0 0.00 0.00 0.00 51 1009.4
20260905200321 101 236 1.0 4.0 0.00 0.00 0.00 51 1009.4
20260905195320 101 300 2.0 7.0 0.00 0.00 0.00 50 1009.5
20260905194342 102 321 3.0 9.0 0.00 0.00 0.00 51 1009.7
20260905193315 102 192 3.0 8.0 0.00 0.00 0.00 47 1009.8
20260905192337 103 243 2.0 5.0 0.00 0.00 0.00 49 1009.7
20260905191310 103 248 3.0 8.0 0.00 0.00 0.00 48 1009.6
20260905190330 103 271 5.0 7.0 0.00 0.00 0.00 50 1009.9
20260905185320 102 244 5.0 10.0 0.00 0.00 0.00 50 1009.9
20260905184318 102 5 1.0 5.0 0.00 0.00 0.00 54 1010.1
20260905183323 101 53 3.0 4.0 0.00 0.00 0.00 53 1010.3
20260905182319 100 319 3.0 5.0 0.00 0.00 0.00 54 1010.6
20260905181312 100 326 2.0 5.0 0.00 0.00 0.00 55 1010.8
20260905180329 101 315 3.0 5.0 0.00 0.00 0.00 54 1010.9
20260905175320 100 338 3.0 8.0 0.00 0.00 0.00 55 1011.3
20260905174311 101 172 3.0 9.0 0.00 0.00 0.00 54 1011.4
20260905173327 100 286 4.0 7.0 0.00 0.00 0.00 56 1011.7
20260905172325 100 225 2.0 8.0 0.00 0.00 0.00 55 1011.9
20260905171317 100 227 5.0 8.0 0.00 0.00 0.00 54 1012.0
20260905170334 100 355 2.0 4.0 0.00 0.00 0.00 56 1012.1
20260905165341 99 252 3.0 7.0 0.00 0.00 0.00 57 1012.2
20260905164339 99 231 5.0 7.0 0.00 0.00 0.00 60 1012.3
20260905163334 98 284 3.0 8.0 0.00 0.00 0.00 59 1012.5
20260905162309 98 330 2.0 6.0 0.00 0.00 0.00 60 1012.6
20260905161324 97 360 3.0 8.0 0.00 0.00 0.00 61 1012.8
20260905160335 97 242 5.0 7.0 0.00 0.00 0.00 63 1012.9
20260905155310 96 275 1.0 8.0 0.00 0.00 0.00 64 1013.2
20260905154331 96 207 3.0 7.0 0.00 0.00 0.00 65 1013.3
20260905153343 96 261 5.0 9.0 0.00 0.00 0.00 65 1013.3
20260905152322 95 245 2.0 8.0 0.00 0.00 0.00 67 1013.3
20260905151311 95 253 4.0 7.0 0.00 0.00 0.00 67 1013.3
20260905150327 94 288 4.0 8.0 0.00 0.00 0.00 68 1013.2
20260905145317 93 254 2.0 8.0 0.00 0.00 0.00 70 1013.2
20260905144308 93 180 4.0 9.0 0.00 0.00 0.00 70 1013.1
20260905143324 92 249 5.0 9.0 0.00 0.00 0.00 73 1013.1
20260905142342 91 216 4.0 8.0 0.00 0.00 0.00 74 1013.1
20260905141339 90 263 3.0 9.0 0.00 0.00 0.00 75 1013.2
20260905140309 90 262 6.0 10.0 0.00 0.00 0.00 75 1013.3
20260905135325 89 173 5.0 9.0 0.00 0.00 0.00 77 1013.2
20260905134335 88 267 3.0 11.0 0.00 0.00 0.00 78 1013.4
20260905133311 87 265 5.0 9.0 0.00 0.00 0.00 79 1013.5
20260905132349 87 199 3.0 7.0 0.00 0.00 0.00 82 1013.5
20260905131338 86 244 4.0 9.0 0.00 0.00 0.00 81 1013.5
20260905130312 85 215 4.0 12.0 0.00 0.00 0.00 83 1013.5
20260905125329 85 209 5.0 10.0 0.00 0.00 0.00 84 1013.6
20260905124318 84 231 5.0 12.0 0.00 0.00 0.00 85 1013.6
20260905123335 83 203 4.0 8.0 0.00 0.00 0.00 87 1013.6
20260905122308 83 220 3.0 8.0 0.00 0.00 0.00 87 1013.5
20260905121348 82 232 3.0 9.0 0.00 0.00 0.00 88 1013.5
20260905120321 82 249 5.0 8.0 0.00 0.00 0.00 88 1013.4
20260905115322 81 289 5.0 9.0 0.00 0.00 0.00 89 1013.3
20260905114316 81 244 4.0 8.0 0.00 0.00 0.00 89 1013.3
20260905113312 81 211 3.0 7.0 0.00 0.00 0.00 90 1013.2
20260905112316 81 257 4.0 9.0 0.00 0.00 0.00 90 1013.1
20260905111311 81 244 3.0 5.0 0.00 0.00 0.00 90 1013.0
20260905110314 81 233 3.0 5.0 0.00 0.00 0.00 90 1013.0
20260905105313 81 194 1.0 5.0 0.00 0.00 0.00 89 1012.8
20260905104338 81 211 2.0 5.0 0.00 0.00 0.00 89 1012.6
20260905103314 81 197 4.0 8.0 0.00 0.00 0.00 89 1012.5
20260905102317 81 213 3.0 6.0 0.00 0.00 0.00 89 1012.5
20260905101312 81 221 3.0 6.0 0.00 0.00 0.00 89 1012.4
20260905100335 81 225 4.0 7.0 0.00 0.00 0.00 89 1012.3
20260905095349 81 178 4.0 8.0 0.00 0.00 0.00 89 1012.4
20260905094328 81 219 4.0 7.0 0.00 0.00 0.00 88 1012.4
20260905093325 81 209 3.0 8.0 0.00 0.00 0.00 88 1012.4
20260905092319 81 215 3.0 9.0 0.00 0.00 0.00 88 1012.4
20260905091320 81 229 2.0 6.0 0.00 0.00 0.00 88 1012.4
20260905090314 82 222 3.0 7.0 0.00 0.00 0.00 88 1012.5
20260905085310 82 186 3.0 6.0 0.00 0.00 0.00 88 1012.5
20260905084309 82 214 2.0 5.0 0.00 0.00 0.00 88 1012.6
20260905083321 81 227 3.0 7.0 0.00 0.00 0.00 88 1012.6
20260905082343 81 186 3.0 7.0 0.00 0.00 0.00 88 1012.6
20260905081320 81 217 3.0 7.0 0.00 0.00 0.00 87 1012.8
20260905080313 81 248 4.0 7.0 0.00 0.00 0.00 87 1012.9
20260905075312 81 239 3.0 5.0 0.00 0.00 0.00 87 1013.0
20260905074311 80 217 3.0 6.0 0.00 0.00 0.00 86 1013.2
20260905073324 80 159 3.0 6.0 0.00 0.00 0.00 84 1013.2
20260905072324 80 236 3.0 4.0 0.00 0.00 0.00 84 1013.3
20260905071335 80 180 2.0 4.0 0.00 0.00 0.00 83 1013.4